This is the latest recevied weather packets stored in our database for station/object N3WXO-1. If no packets are shown the sender has not sent any weather packets the latest 10 day(s).
| Time | Temp. | Humidity | Pressure | Rain* | Wind** | Luminosity | Snow |
|---|---|---|---|---|---|---|---|
| 1777832719 | 14.44° C | 38% | 1012.8 hPa | 0 mm | - | 881 W/m² | - |
| 1777832417 | 14.44° C | 42% | 1012.9 hPa | 0 mm | - | 896 W/m² | - |
| 1777832134 | 13.89° C | 39% | 1012.6 hPa | 0 mm | - | 214 W/m² | - |
| 1777831829 | 14.44° C | 38% | 1012.6 hPa | 0 mm | - | 944 W/m² | - |
| 1777831525 | 14.44° C | 40% | 1013 hPa | 0 mm | - | 923 W/m² | - |
| 1777831220 | 13.89° C | 42% | 1012.8 hPa | 0 mm | - | 951 W/m² | - |
| 1777830937 | 13.89° C | 42% | 1012.9 hPa | 0 mm | - | 1011 W/m² | - |
| 1777830632 | 13.89° C | 42% | 1013 hPa | 0 mm | - | 940 W/m² | - |
| 1777830329 | 13.33° C | 43% | 1012.9 hPa | 0 mm | - | 942 W/m² | - |
| 1777830027 | 13.33° C | 42% | 1013 hPa | 0 mm | - | 963 W/m² | - |
| 1777829723 | 13.33° C | 39% | 1013.1 hPa | 0 mm | - | 185 W/m² | - |
| 1777829419 | 13.33° C | 38% | 1013.1 hPa | 0 mm | - | 1004 W/m² | - |
| 1777829135 | 13.33° C | 38% | 1013.1 hPa | 0 mm | - | 1025 W/m² | - |
| 1777828830 | 12.78° C | 39% | 1013 hPa | 0 mm | - | 1013 W/m² | - |
| 1777828524 | 12.78° C | 42% | 1013.2 hPa | 0 mm | - | 366 W/m² | - |
| 1777828221 | 12.78° C | 40% | 1013.3 hPa | 0 mm | - | 362 W/m² | - |
| 1777827922 | 12.78° C | 38% | 1013.3 hPa | 0 mm | - | 359 W/m² | - |
| 1777827618 | 12.78° C | 43% | 1013.4 hPa | 0 mm | - | 1055 W/m² | - |
| 1777827335 | 12.78° C | 42% | 1013.3 hPa | 0 mm | - | 429 W/m² | - |
| 1777827030 | 12.78° C | 42% | 1013.3 hPa | 0 mm | - | 234 W/m² | - |
| 1777826727 | 12.22° C | 38% | 1013.4 hPa | 0 mm | - | 1002 W/m² | - |
| 1777826423 | 12.22° C | 42% | 1013.4 hPa | 0 mm | - | 243 W/m² | - |
| 1777826138 | 12.22° C | 43% | 1013.4 hPa | 0 mm | - | 967 W/m² | - |
| 1777825817 | 11.67° C | 42% | 1013.7 hPa | 0 mm | - | 218 W/m² | - |
| 1777825533 | 11.67° C | 40% | 1013.5 hPa | 0 mm | - | 209 W/m² | - |
* Rain latest hour (hover to see other rain measurements)
** Current wind speed in m/s (hover to see current wind gust speed)